2022-047J (52402 NORAD) Tracking and Keplerian Element Data
This shows tracking and keplerian element data for the satellite.
Feedback or suggestion? Click here.
Element | Value |
Catalog | 52402 |
Name | 2022-047J |
Epoch Orbit | 812 |
Epoch Day | 166.95494744 |
Epoch Year | 2022 |
RAAN | 251.8889 |
Inclination | 97.4498 |
Eccentricity | 0.0010689 |
Argument of Perigee | 173.3601 |
Mean Anonmoly | 186.7774 |
Mean Motion | 15.1363644 |
Decay Rate | 0.00013696 |
L1 | 1 52402U 22047J 22166.95494744 .00013696 00000+0 76388-3 0 9990 |
L2 | 2 52402 97.4498 251.8889 0010689 173.3601 186.7774 15.13636440 8126 |
Live tracking and technical data element details for 2022-047J (NORAD 52402). 2022-047J can be tracked NOW for your location showing map with azimuth and elevation plus other details from your city location.
Track the satellite on the map from your city or location and see movement details for azimuth, elevation, latitude, longitude, range, height, and movement on the map or in text.
IsCatalogInMostPopularTable: catalog: 52402, numindb: 1
Update: records affected: 1
GetName: 52402 2022-047J
Hit Count: updated at: Mon, 27 Jun 2022 05:51:26 GMT